FW6594 Weather Reports


time (UTC)temp
C
wind
direction
speed
KPH
gust
KPH
rain 1hr
cm
rain 24hr
cm
rain mn
cm
humidity
%
barometer
mb
20260502140124 21 0.0 0.0 0.00 0.00 0.00 50 1003.3
20260502130127 20 268 3.2 8.0 0.00 0.00 0.00 54 1003.5
20260502123118 20 58 0.0 3.2 0.00 0.00 0.00 57 1003.7
20260502122147 20 103 1.6 3.2 0.00 0.00 0.00 56 1004.2
20260502121124 20 0.0 0.0 0.00 0.00 0.00 55 1004.2
20260502120124 20 0.0 0.0 0.00 0.00 0.00 55 1004.6
20260502115158 19 299 1.6 8.0 0.00 0.00 0.00 57 1004.7
20260502114126 19 0.0 0.0 0.00 0.00 0.00 57 1004.7
20260502113124 18 45 0.0 3.2 0.00 0.00 0.00 58 1004.7
20260502112144 18 296 4.8 12.9 0.00 0.00 0.00 60 1004.7
20260502111118 18 0.0 0.0 0.00 0.00 0.00 61 1004.7
20260502110126 18 0.0 0.0 0.00 0.00 0.00 61 1004.9
20260502105124 18 254 0.0 3.2 0.00 0.00 0.00 63 1004.9
20260502104124 18 55 0.0 3.2 0.00 0.00 0.00 62 1004.8
20260502103118 18 353 3.2 8.0 0.00 0.00 0.00 63 1004.7
20260502102126 18 0.0 0.0 0.00 0.00 0.00 63 1005.1
20260502101124 18 17 1.6 3.2 0.00 0.00 0.00 59 1005.4
20260502100144 17 67 1.6 8.0 0.00 0.00 0.00 62 1005.5
20260502091118 15 51 0.0 3.2 0.00 0.00 0.00 72 1005.7
20260502090126 13 31 1.6 8.0 0.00 0.00 0.00 71 1006.0
20260502071138 14 295 3.2 8.0 0.00 0.00 0.00 76 1005.5
20260502070126 13 20 1.6 3.2 0.00 0.00 0.00 76 1005.4
20260502065124 13 328 0.0 3.2 0.00 0.00 0.00 76 1005.8
20260502064124 13 0.0 0.0 0.00 0.00 0.00 79 1005.6
20260502063118 12 0.0 0.0 0.00 0.00 0.00 80 1005.4
20260502062146 12 0.0 0.0 0.00 0.00 0.00 81 1005.8
20260502061124 12 14 1.6 3.2 0.00 0.00 0.00 83 1005.6
20260502060124 11 0.0 0.0 0.00 0.00 0.00 85 1005.4
20260502055118 11 44 0.0 3.2 0.00 0.00 0.00 85 1005.4
20260502054126 11 0.0 0.0 0.00 0.00 0.00 86 1005.4
20260502053124 11 0.0 0.0 0.00 0.00 0.00 88 1005.4
20260502052124 11 0.0 0.0 0.00 0.00 0.00 88 1005.4
20260502051159 10 0.0 0.0 0.00 0.00 0.00 89 1005.4
20260502050126 10 0.0 0.0 0.00 0.00 0.00 89 1005.7
20260502045118 10 26 0.0 3.2 0.00 0.00 0.00 89 1005.4
20260502044126 11 0.0 0.0 0.00 0.00 0.00 89 1005.4
20260502043124 11 0.0 0.0 0.00 0.00 0.00 88 1005.4
20260502042144 11 0.0 0.0 0.00 0.00 0.00 88 1005.4
20260502041118 11 0.0 0.0 0.00 0.00 0.00 88 1005.4
20260502040146 11 20 1.6 3.2 0.00 0.00 0.00 87 1005.6
20260502035124 11 330 1.6 8.0 0.00 0.00 0.00 86 1005.6
20260502034124 11 0.0 0.0 0.00 0.00 0.00 86 1005.8
20260502033118 12 41 0.0 3.2 0.00 0.00 0.00 86 1005.8
20260502032146 12 0.0 0.0 0.00 0.00 0.00 85 1005.8
20260502031124 12 321 1.6 8.0 0.00 0.00 0.00 85 1005.8
20260502030144 12 333 1.6 8.0 0.00 0.00 0.00 84 1005.9
20260502025118 12 0.0 0.0 0.00 0.00 0.00 84 1005.8
20260502024126 12 349 0.0 3.2 0.00 0.00 0.00 84 1005.8
20260502023124 12 0.0 0.0 0.00 0.00 0.00 83 1005.8
20260502022124 12 101 0.0 3.2 0.00 0.00 0.00 83 1005.9
20260502021118 13 0.0 0.0 0.00 0.00 0.00 83 1006.2
20260502020127 13 0.0 0.0 0.00 0.00 0.00 84 1006.2
20260502015118 13 54 0.0 3.2 0.00 0.00 0.00 85 1006.2
20260502014146 13 0.0 0.0 0.00 0.00 0.00 85 1006.2
20260502013124 13 0.0 0.0 0.00 0.00 0.00 86 1006.2
20260502012124 13 0.0 0.0 0.00 0.00 0.00 86 1006.2
20260502011118 13 0.0 0.0 0.00 0.00 0.00 87 1006.2
20260502010126 13 2 4.8 8.0 0.00 0.00 0.00 87 1006.5
20260502005124 13 329 4.8 8.0 0.00 0.00 0.00 87 1006.5
20260502004124 13 295 1.6 3.2 0.00 0.00 0.00 86 1006.7
20260502003118 13 351 1.6 3.2 0.00 0.00 0.00 86 1006.8
20260502002147 13 346 0.0 3.2 0.00 0.00 0.00 87 1006.8
20260502001124 13 21 3.2 12.9 0.00 0.00 0.00 87 1006.8
20260502000124 13 0.0 0.0 0.00 0.00 0.00 87 1006.8
20260501235118 13 0.0 0.0 0.00 0.00 0.00 87 1006.5
20260501234126 13 82 1.6 3.2 0.00 0.00 0.00 87 1006.6
20260501233124 13 306 0.0 3.2 0.00 0.00 0.00 86 1006.8
20260501232124 13 277 4.8 12.9 0.00 0.00 0.00 86 1006.8
20260501231118 13 0.0 0.0 0.00 0.00 0.00 86 1006.8
20260501230126 13 336 1.6 8.0 0.00 0.00 0.00 85 1006.8
20260501225118 13 0.0 0.0 0.00 0.00 0.00 85 1006.8
20260501224126 14 328 3.2 8.0 0.00 0.00 0.00 84 1006.8
20260501223124 14 354 3.2 8.0 0.00 0.00 0.00 83 1006.8
20260501222125 15 44 1.6 3.2 0.00 0.00 0.00 82 1006.8
20260501221119 15 10 3.2 12.9 0.00 0.00 0.00 82 1006.8
20260501220149 15 0.0 0.0 0.00 0.00 0.00 81 1006.8
20260501215124 15 270 1.6 8.0 0.00 0.00 0.00 79 1006.8
20260501214144 15 0.0 0.0 0.00 0.00 0.00 78 1006.4
20260501213118 15 0.0 0.0 0.00 0.00 0.00 77 1006.4
20260501212126 16 270 8.0 16.1 0.00 0.00 0.00 75 1006.4
20260501211124 16 318 6.4 12.9 0.00 0.00 0.00 74 1006.4
20260501210124 16 7 0.0 3.2 0.00 0.00 0.00 72 1006.4
20260501205118 16 6 3.2 8.0 0.00 0.00 0.00 71 1006.4
20260501204126 16 278 8.0 12.9 0.00 0.00 0.00 69 1006.1
20260501203124 17 0.0 0.0 0.00 0.00 0.00 68 1006.2
20260501202123 17 299 3.2 12.9 0.00 0.00 0.00 67 1006.1
20260501201118 17 40 0.0 3.2 0.00 0.00 0.00 67 1006.1
20260501200126 17 333 4.8 8.0 0.00 0.00 0.00 66 1006.1
20260501195144 18 317 4.8 8.0 0.00 0.00 0.00 64 1006.1
20260501194123 18 296 3.2 8.0 0.00 0.00 0.00 66 1006.1
20260501193118 19 305 4.8 12.9 0.00 0.00 0.00 66 1005.8
20260501192126 20 317 9.7 12.9 0.00 0.00 0.00 65 1005.8
20260501191124 21 262 3.2 12.9 0.00 0.00 0.00 63 1005.7
20260501190124 21 295 4.8 12.9 0.00 0.00 0.00 62 1005.6
20260501185117 22 59 0.0 3.2 0.00 0.00 0.00 60 1005.4
20260501184124 22 0.0 0.0 0.00 0.00 0.00 59 1004.9
20260501183117 22 0.0 0.0 0.00 0.00 0.00 57 1005.0
20260501182126 23 0.0 0.0 0.00 0.00 0.00 56 1005.0
20260501181123 23 0.0 0.0 0.00 0.00 0.00 54 1004.9
20260501180124 23 0.0 0.0 0.00 0.00 0.00 53 1004.9
20260501175118 23 0.0 0.0 0.00 0.00 0.00 54 1004.9
20260501174126 23 0.0 0.0 0.00 0.00 0.00 52 1004.9
20260501173124 23 0.0 0.0 0.00 0.00 0.00 52 1004.9
20260501172124 23 0.0 0.0 0.00 0.00 0.00 52 1005.2
20260501171118 24 0.0 0.0 0.00 0.00 0.00 51 1005.3
20260501170125 24 0.0 0.0 0.00 0.00 0.00 51 1005.3
20260501165123 24 0.0 0.0 0.00 0.00 0.00 50 1005.3
20260501164124 24 0.0 0.0 0.00 0.00 0.00 48 1005.2
20260501163138 24 30 0.0 3.2 0.00 0.00 0.00 49 1005.3
20260501162126 25 0.0 0.0 0.00 0.00 0.00 48 1005.3
20260501161123 25 0.0 0.0 0.00 0.00 0.00 47 1005.4
20260501160124 25 0.0 0.0 0.00 0.00 0.00 46 1005.6
20260501155118 25 196 3.2 12.9 0.00 0.00 0.00 46 1005.6
20260501154126 25 61 1.6 3.2 0.00 0.00 0.00 45 1005.7
20260501153124 25 0.0 0.0 0.00 0.00 0.00 46 1005.8
20260501152123 25 39 0.0 3.2 0.00 0.00 0.00 44 1005.7
20260501151118 26 0.0 0.0 0.00 0.00 0.00 43 1006.0
20260501150126 26 0.0 0.0 0.00 0.00 0.00 43 1006.0
20260501145124 26 140 4.8 12.9 0.00 0.00 0.00 41 1006.0
20260501144144 25 314 0.0 3.2 0.00 0.00 0.00 43 1006.1
20260501143117 26 0.0 0.0 0.00 0.00 0.00 41 1006.4